GFSCGP_250_rhum_132.txt.gz
RH
63 53 39 44 74 91 64 50 66 73 63 65 66 70 67 56 55 54 52 50 47 51 78 100 92 89 92 99 100 90 96 100 97 100 100 100 100 99 75 76 71 71 66 77
60 42 53 50 64 82 70 76 75 74 75 65 71 63 61 62 62 61 58 48 45 46 76 99 100 100 100 100 99 98 100 100 100 98 93 91 79 72 64 59 60 57 53 52
52 43 71 65 58 80 86 85 86 79 74 75 69 64 61 74 75 74 67 64 69 68 72 72 81 86 86 98 100 100 100 100 100 100 100 100 100 98 93 85 78 71 68 64
55 46 57 52 46 62 88 85 86 88 85 74 72 74 74 79 88 97 98 99 99 100 100 100 97 86 84 86 91 93 95 100 100 100 95 88 82 80 85 80 72 63 54 50
72 45 43 52 77 100 100 99 99 100 100 94 99 95 99 93 97 100 100 96 96 96 96 97 98 92 75 65 65 62 57 53 46 43 43 45 42 39 41 43 42 39 38 38
66 96 92 99 100 100 86 76 98 100 100 100 98 97 100 95 99 96 99 98 96 95 93 87 82 78 70 73 68 60 59 56 48 41 36 35 35 34 31 29 24 20 17 15
63 81 100 100 100 100 86 71 75 81 86 100 96 94 96 80 84 86 88 95 97 92 97 97 93 80 72 74 59 46 41 39 35 30 27 24 18 16 14 14 14 13 12 11
100 89 92 92 92 79 71 76 79 77 81 93 92 94 98 100 93 86 82 77 75 72 67 66 70 69 58 48 41 40 38 32 27 20 16 16 16 15 13 13 13 12 10 9
100 100 94 86 80 74 70 77 83 85 81 80 99 99 97 100 86 87 83 93 88 79 74 65 63 58 50 42 39 36 32 25 18 18 18 16 12 10 11 11 14 14 13 12
90 87 88 95 97 98 96 93 93 98 88 83 87 98 92 78 92 97 95 87 85 91 97 75 63 54 45 44 38 30 24 22 23 18 11 10 12 13 15 19 25 29 25 23
77 70 75 92 97 99 97 100 99 96 96 92 75 65 66 69 79 81 72 77 87 89 70 62 52 46 44 36 34 30 33 29 18 11 12 16 17 20 29 42 50 39 33 37
81 72 86 86 99 100 100 98 93 76 75 66 45 66 54 64 69 72 68 72 73 63 54 50 47 41 35 33 33 38 34 22 20 22 21 20 20 28 54 56 51 63 57 60
88 80 71 74 76 77 70 63 60 57 51 39 55 50 42 63 64 69 71 69 66 60 49 47 36 32 33 38 40 34 27 26 34 36 36 33 28 30 54 53 70 67 78 77
84 86 83 78 68 61 53 49 51 50 43 52 44 46 53 41 63 79 75 62 55 50 43 38 38 41 41 39 34 25 27 35 44 48 56 60 59 41 50 53 56 60 62 74
79 73 60 44 55 64 48 42 43 42 44 53 49 52 56 76 59 65 60 53 52 45 45 47 48 40 37 37 27 30 36 43 55 54 52 65 80 77 70 72 67 64 54 58
54 55 35 30 39 32 29 27 38 36 35 33 38 38 83 53 72 69 61 54 53 51 52 52 41 36 38 28 33 38 49 57 60 65 62 63 70 78 76 68 64 62 63 65
34 33 29 26 25 21 16 30 25 25 33 38 35 49 57 54 60 65 62 57 57 53 50 42 43 41 30 30 39 51 61 66 67 69 74 77 71 74 77 79 78 79 82 88
25 22 19 17 19 15 22 22 24 24 28 32 32 34 39 48 58 62 59 53 61 52 43 56 44 29 34 42 46 50 56 60 67 71 70 67 72 74 68 76 82 82 82 77
23 22 20 15 15 14 20 22 23 20 28 27 22 22 32 48 54 48 54 63 50 50 60 42 32 36 38 42 46 45 43 44 49 52 56 60 62 58 65 69 69 76 80 81
32 25 16 15 13 14 21 23 22 22 24 23 22 26 30 36 47 55 50 48 67 60 44 34 37 40 44 39 31 29 27 26 26 26 29 35 40 47 55 60 64 73 78 82
21 18 15 14 14 15 18 23 22 18 22 25 26 27 31 35 40 48 63 73 63 51 48 47 42 41 33 28 18 15 14 14 15 17 22 30 35 41 48 55 60 68 76 77
18 17 16 14 13 14 18 20 19 21 24 26 27 27 34 39 55 82 73 74 64 61 51 46 39 28 18 15 13 11 11 12 13 14 18 24 28 35 44 49 56 64 68 70
15 14 12 12 15 16 21 20 24 23 29 26 27 34 47 67 85 79 80 72 72 61 49 44 30 19 14 12 11 10 10 11 13 15 18 25 32 41 48 52 51 55 60 67
14 13 12 14 17 20 22 22 23 26 26 29 35 44 75 71 80 78 73 71 65 53 47 32 20 16 12 11 11 11 11 13 15 17 22 31 37 40 42 45 51 54 55 61
14 14 15 17 20 21 24 22 26 28 30 38 65 66 71 79 76 76 77 71 59 52 39 25 18 14 13 12 13 13 14 16 17 20 24 32 38 42 48 54 58 62 70 75
13 15 16 19 23 28 31 28 26 31 56 68 67 82 89 84 83 84 81 68 59 47 37 24 20 18 16 16 16 17 19 20 21 23 26 32 42 54 62 69 72 77 82 86

GFSCGP_250_rhum_135.txt.gz
RH
58 100 100 82 64 51 79 77 73 65 46 44 64 56 53 60 53 70 58 75 84 67 59 51 45 48 54 50 42 45 76 100 92 77 81 82 80 100 98 100 100 100 100 100
60 56 54 84 72 52 47 63 69 58 61 50 53 51 42 74 90 68 65 64 65 66 59 55 50 52 54 46 37 42 57 95 100 100 100 94 84 65 60 56 54 76 96 100
76 83 78 71 87 71 58 56 71 82 70 44 35 39 58 96 91 69 71 60 63 60 57 55 59 64 67 74 69 65 58 52 59 65 78 94 97 97 99 100 95 84 70 59
79 86 83 94 97 78 50 55 62 79 97 86 82 97 100 99 89 93 100 98 85 71 67 63 66 74 89 98 100 100 100 100 97 92 80 71 69 66 59 69 73 74 66 59
94 74 100 84 99 77 71 46 74 79 100 97 100 100 100 86 85 71 90 99 96 96 100 100 97 86 79 81 86 77 73 79 79 67 64 58 51 50 47 43 40 40 38 38
96 81 95 93 91 92 78 84 60 75 83 84 98 97 97 84 81 86 84 85 82 85 85 91 91 90 93 96 94 86 88 86 76 73 78 74 71 65 53 53 46 37 34 30
100 97 79 94 100 99 100 100 90 98 92 97 100 87 95 75 76 74 70 65 71 88 94 96 91 91 83 81 71 63 54 53 56 58 55 50 49 45 39 36 32 27 23 19
100 100 100 78 97 99 86 100 100 100 100 100 100 99 90 68 78 84 85 74 69 70 71 71 78 87 69 57 60 60 52 48 46 43 40 42 38 35 33 25 20 17 16 17
60 94 84 72 68 65 73 87 87 79 94 78 86 98 96 86 88 81 83 68 64 66 56 56 59 60 54 53 48 55 57 49 48 48 49 46 36 27 20 19 21 19 14 12
72 76 100 84 71 79 91 93 84 83 82 70 66 68 73 66 64 69 84 73 68 58 54 55 57 58 68 65 68 60 52 43 52 50 43 32 27 25 25 20 13 11 12 14
100 87 95 100 88 98 92 88 100 95 83 76 70 69 86 82 82 72 63 55 51 54 48 57 69 63 58 62 61 56 46 51 53 43 32 32 32 31 16 14 15 17 20 20
84 84 91 100 88 88 96 100 85 92 89 79 74 65 73 68 65 60 47 48 54 47 62 64 60 62 62 59 58 56 52 46 43 38 38 37 32 23 21 18 22 23 26 27
100 100 84 75 100 100 100 98 100 90 84 80 76 69 77 68 49 37 43 39 48 49 53 55 60 65 70 70 57 43 42 46 48 42 38 36 24 30 37 32 33 35 32 32
100 100 100 80 86 94 89 72 71 76 65 59 58 54 50 44 45 42 38 40 41 41 52 53 64 72 67 54 50 49 52 49 44 39 39 30 31 43 58 63 56 65 56 51
100 98 99 94 97 95 93 62 50 58 74 58 36 32 28 39 63 50 30 32 43 52 48 54 60 64 55 54 56 57 51 45 39 39 30 32 42 52 62 70 76 81 87 84
98 89 90 62 73 58 48 41 50 37 30 27 27 22 45 42 30 44 53 33 37 48 55 51 52 55 52 50 52 52 42 33 36 27 27 39 52 64 64 68 74 83 81 78
88 61 43 40 43 30 22 38 28 24 26 25 20 20 27 33 28 39 42 28 34 46 51 49 43 45 47 45 50 41 33 36 25 30 43 54 57 61 66 68 72 76 86 88
30 32 33 29 28 22 26 29 24 22 18 21 17 17 24 23 36 23 34 40 40 40 44 43 42 44 42 46 36 38 35 26 29 36 45 55 60 57 59 66 67 72 80 84
24 27 26 21 20 19 22 40 15 16 18 28 18 19 16 29 27 30 36 34 37 38 41 48 46 48 43 37 44 31 25 28 39 40 40 44 47 49 54 50 60 65 74 79
24 22 20 19 19 18 28 24 18 15 15 28 19 17 20 23 25 29 32 37 38 42 46 59 53 42 52 40 27 32 40 37 31 27 26 26 27 30 35 38 50 54 60 72
21 20 20 18 16 15 24 16 17 17 19 21 18 17 21 23 23 27 29 33 42 51 53 55 66 54 37 35 43 38 29 21 16 14 13 14 14 16 24 34 42 43 50 60
17 22 22 23 15 13 16 16 16 18 18 17 19 22 22 22 24 25 31 37 46 56 71 62 51 47 45 45 36 22 16 13 12 11 10 11 12 14 18 25 35 40 47 54
20 22 21 18 14 16 18 16 18 17 16 19 19 22 24 26 26 32 38 58 77 69 64 65 62 53 49 34 21 16 12 10 10 10 10 11 14 16 19 26 36 43 45 49
22 23 14 11 17 15 16 18 19 17 18 22 23 25 26 29 35 48 75 76 73 77 79 72 59 54 39 25 17 14 12 11 11 11 12 14 16 18 22 28 34 41 48 52
16 13 12 14 15 16 16 19 20 23 28 26 27 31 30 36 59 86 82 86 85 86 80 67 55 46 31 19 17 14 13 14 14 15 16 18 20 24 32 41 48 53 55 58
11 12 14 16 16 16 20 24 24 24 24 32 34 35 41 80 85 80 88 91 91 85 75 60 55 42 26 19 17 16 18 18 19 21 23 25 29 36 47 57 62 66 67 67

GFSCGP_250_rhum_138.txt.gz
RH
43 73 92 88 94 67 79 74 58 49 56 53 55 54 74 74 74 66 60 74 59 63 65 68 70 52 44 46 60 61 58 54 45 42 41 43 39 37 58 76 82 99 100 99
44 42 90 90 87 73 74 70 72 61 63 89 79 61 72 65 67 65 78 83 86 100 100 85 72 70 74 67 51 45 45 46 47 45 44 40 38 35 34 47 78 96 100 100
47 46 35 37 46 60 90 89 85 86 99 87 83 78 78 88 70 86 70 95 81 88 97 97 78 80 66 76 79 78 72 64 64 65 70 86 87 80 58 48 39 42 49 56
80 72 59 57 53 62 64 75 95 100 99 95 100 87 99 98 85 65 72 72 79 88 90 100 100 88 76 89 93 84 80 89 94 85 74 70 71 100 100 100 100 95 65 51
100 99 95 89 100 84 98 94 91 100 100 100 100 100 100 100 100 88 87 98 83 100 90 96 100 96 72 59 72 75 70 74 87 87 84 87 85 79 63 51 55 50 51 56
100 100 100 100 100 100 100 100 100 100 100 100 100 100 95 100 95 96 80 78 90 92 86 87 86 82 86 63 60 57 58 56 59 64 67 71 70 69 68 62 54 50 47 47
100 100 100 95 100 100 80 67 86 86 98 95 98 88 94 80 72 82 71 75 75 71 62 65 65 72 70 62 54 55 56 48 47 52 50 51 50 49 46 47 47 44 42 39
91 66 90 61 71 100 70 88 67 60 61 70 62 80 70 69 68 69 62 53 54 56 56 56 58 56 54 51 49 57 52 48 46 45 49 51 49 47 47 54 59 54 47 37
96 83 91 76 70 66 85 81 85 76 65 66 52 67 86 96 99 73 69 64 60 66 74 62 64 62 55 60 58 50 42 42 47 49 46 40 37 46 51 47 41 38 36 28
92 100 100 100 100 69 67 78 100 94 74 74 77 93 100 78 89 79 82 89 74 67 56 42 52 55 55 56 51 41 44 45 43 44 35 37 50 53 48 46 37 29 27 23
89 100 97 82 86 93 78 66 78 96 100 97 79 78 93 70 70 69 78 70 73 72 66 68 63 60 55 51 54 51 47 43 38 35 42 52 59 45 41 38 34 31 32 26
100 84 100 100 100 100 100 100 100 100 100 100 86 91 100 67 71 75 58 64 55 59 100 95 56 50 43 51 60 60 52 46 44 44 52 54 51 45 42 43 40 36 31 20
100 100 100 88 82 100 100 100 99 95 87 99 100 98 100 95 75 65 55 60 62 79 50 80 47 34 57 67 70 71 60 55 54 46 49 54 53 51 46 44 35 33 28 28
98 100 100 100 100 100 100 100 100 100 100 100 90 72 70 70 53 41 38 41 39 35 44 92 87 36 36 49 57 56 60 63 56 48 49 50 51 49 42 35 37 30 36 49
100 80 93 95 100 100 100 100 100 87 86 84 79 79 75 51 39 39 32 28 31 34 40 87 81 88 38 41 51 53 58 59 54 46 48 45 43 44 36 37 34 34 49 59
98 100 100 100 100 100 100 97 100 96 85 66 57 39 35 33 34 28 22 37 52 54 54 72 44 29 32 39 40 42 47 55 52 46 46 43 44 36 40 30 35 47 59 70
95 97 99 80 70 77 58 97 88 63 39 32 27 26 25 28 22 20 26 30 33 34 37 57 49 48 41 44 43 48 52 48 43 42 38 38 33 38 30 34 45 58 66 68
58 53 46 35 31 27 30 36 32 25 20 24 32 24 20 20 14 30 38 28 38 33 24 28 31 35 36 39 42 46 46 46 40 36 29 32 28 24 29 41 51 59 64 68
29 26 25 22 20 20 21 50 22 19 18 53 24 20 20 16 26 21 24 36 19 22 32 29 32 38 38 41 48 49 45 38 31 35 25 24 28 30 35 40 42 48 55 59
20 19 20 20 19 18 24 34 22 20 19 48 21 19 21 21 20 19 24 20 20 24 29 33 37 38 38 47 46 40 46 44 27 28 33 30 23 20 20 23 26 31 39 42
20 22 20 20 19 16 27 24 26 19 26 22 18 22 19 17 18 19 22 21 23 26 30 34 38 41 46 53 61 52 36 41 38 32 23 16 14 13 12 13 14 18 28 33
17 19 19 20 18 17 23 22 20 17 17 19 21 21 18 16 18 18 22 25 27 29 31 35 44 66 75 66 48 47 49 40 26 17 13 12 10 10 10 11 12 15 18 30
16 18 18 20 20 21 18 14 15 15 15 17 18 20 17 17 19 21 25 26 28 32 43 62 79 76 69 57 56 54 40 24 17 14 12 11 10 10 11 11 13 15 18 24
14 16 16 18 24 18 16 12 17 17 16 16 17 19 18 21 25 28 28 27 31 52 76 75 75 75 70 67 59 46 30 20 16 13 12 12 12 13 14 15 16 18 21 27
16 17 18 19 21 15 13 15 16 15 16 16 18 20 24 30 27 29 31 31 54 75 77 75 82 86 81 65 52 38 26 19 15 15 15 15 16 18 19 22 24 27 33 42
17 17 15 15 13 16 17 14 16 16 16 17 19 20 28 28 32 34 38 66 78 81 82 85 90 93 73 63 48 35 25 21 18 18 18 19 22 24 26 30 34 41 48 54

GFSCGP_250_rhum_141.txt.gz
RH
49 47 47 46 37 54 32 36 38 49 37 32 32 35 42 49 67 95 89 62 46 37 42 52 51 74 83 90 83 82 74 78 80 86 72 61 46 35 38 46 47 40 39 34
36 43 56 46 39 40 45 54 79 82 71 56 52 59 47 46 55 73 98 78 53 60 77 100 99 90 96 96 100 100 92 92 96 82 76 68 66 59 48 44 47 49 46 42
50 41 64 69 53 66 76 87 99 93 99 100 98 65 92 93 90 80 76 84 87 90 94 100 100 98 88 90 100 100 100 99 100 100 100 88 74 72 65 60 57 61 58 54
45 79 73 62 90 97 78 100 89 76 100 100 100 100 100 100 100 100 100 86 100 100 100 98 100 93 82 68 69 79 83 79 82 78 85 95 84 74 57 47 54 61 60 63
34 46 70 49 49 57 62 82 79 100 100 100 100 100 78 79 100 100 100 92 89 82 73 92 91 96 90 62 56 58 60 59 62 62 62 61 64 65 60 55 51 51 51 57
42 48 52 57 67 89 95 99 100 100 100 92 99 58 51 64 73 70 74 86 63 76 87 68 77 58 50 46 43 50 46 45 45 47 49 51 52 51 50 51 51 48 44 45
88 78 100 93 87 82 98 100 100 100 92 74 65 41 68 81 60 62 81 80 73 62 59 56 43 42 45 47 51 48 46 47 46 45 46 48 48 46 43 39 38 41 44 46
98 98 100 100 100 100 87 100 93 94 83 71 49 41 84 99 100 60 55 56 59 66 78 75 58 60 76 91 64 60 61 48 45 49 49 48 48 46 39 34 35 35 38 42
100 98 100 100 100 100 100 100 100 81 70 48 61 68 78 58 62 76 66 61 96 88 70 87 89 64 83 69 60 44 38 40 45 54 49 44 44 42 34 31 30 34 40 37
74 80 100 100 100 94 88 97 78 53 52 76 91 85 98 98 100 100 97 100 84 76 87 80 88 100 83 75 57 30 40 42 45 43 42 42 47 44 40 36 36 40 48 46
81 78 73 73 61 44 51 54 55 77 100 100 100 100 100 100 100 94 71 71 88 89 91 100 96 80 76 67 44 41 38 36 39 43 45 51 59 56 48 44 44 43 47 43
87 56 50 41 46 67 85 75 100 100 100 100 100 100 100 85 95 93 92 100 100 100 86 64 64 65 50 43 47 71 35 29 27 42 54 52 67 60 47 44 53 49 46 47
87 96 100 100 100 100 100 100 100 100 100 100 92 86 100 98 67 66 79 86 68 70 73 72 57 40 46 58 98 59 44 30 32 40 41 56 57 47 42 41 53 49 50 45
100 100 100 100 100 100 100 100 100 98 100 100 100 100 93 93 90 91 82 78 54 52 43 30 29 30 38 76 70 49 35 46 44 40 40 46 49 43 37 40 47 43 43 41
100 100 100 100 100 100 100 100 100 100 100 100 82 68 94 91 74 68 67 55 44 40 35 38 41 38 54 56 38 30 30 39 35 40 55 53 42 36 36 42 44 38 37 36
100 100 100 100 100 100 100 100 100 100 86 89 92 69 89 64 52 40 31 42 32 30 26 28 33 33 37 38 30 25 33 39 39 42 42 44 36 41 42 37 38 36 34 32
100 100 100 100 100 100 83 96 97 82 68 83 78 57 36 37 28 23 28 27 27 22 22 27 27 25 22 21 35 44 44 40 41 46 44 33 36 36 35 35 35 31 33 32
89 100 100 100 84 83 84 100 91 65 51 52 45 29 26 23 23 27 24 26 24 25 22 22 23 20 18 25 34 43 46 49 52 44 36 36 35 31 30 30 30 27 27 26
66 72 76 67 63 58 58 66 33 28 20 28 26 24 22 22 22 22 21 23 24 24 22 18 18 24 22 21 29 37 41 46 45 41 36 38 37 31 26 20 22 29 32 31
69 58 46 40 33 23 24 26 23 18 15 26 23 22 22 22 21 22 22 20 19 20 19 19 21 21 24 31 34 34 43 47 39 50 45 39 33 30 27 24 21 20 21 22
26 23 16 17 16 15 23 24 22 18 19 21 23 21 23 26 24 27 23 20 18 16 18 20 21 24 26 28 36 40 42 57 54 47 44 38 30 20 16 13 12 11 12 13
15 15 16 15 14 15 21 18 18 18 18 20 20 24 25 26 24 24 20 17 17 18 19 22 27 30 32 33 42 61 62 52 55 50 40 27 18 14 12 11 10 10 10 11
15 14 14 15 16 17 16 18 20 19 19 16 17 18 19 22 18 16 17 19 19 20 24 30 32 33 42 62 70 62 58 63 57 44 28 19 15 13 12 11 11 11 12 12
13 15 12 15 17 16 15 16 18 17 15 13 15 20 16 16 17 18 19 20 22 31 34 34 37 60 76 75 69 65 72 62 49 34 23 18 14 14 13 14 14 14 14 16
14 12 14 14 15 16 16 16 16 17 14 14 20 16 14 14 16 18 18 24 35 38 35 42 73 81 81 78 72 78 70 59 48 32 23 18 17 17 19 19 19 19 18 19
11 13 13 17 15 16 15 15 13 14 14 16 14 14 14 16 18 20 23 30 40 46 44 78 81 82 80 79 86 83 72 63 49 35 25 21 20 24 20 24 26 26 24 24

GFSCGP_250_rhum_144.txt.gz
RH
42 36 38 46 53 56 58 42 56 66 60 37 37 48 75 85 96 71 69 71 55 48 77 96 100 99 99 94 100 97 100 100 97 96 97 95 90 89 85 90 98 98 90 71
39 47 66 39 40 35 46 56 59 71 74 52 68 75 82 100 85 88 66 47 65 98 100 94 82 82 82 95 90 84 71 84 94 88 81 80 76 67 79 92 88 95 98 94
36 36 50 40 46 30 37 41 38 42 58 78 71 64 73 76 99 94 69 75 74 62 68 68 47 51 50 82 98 88 85 88 84 82 85 87 59 56 56 51 52 56 59 64
51 46 46 48 42 42 36 32 32 31 34 41 59 41 65 100 100 94 84 80 96 97 74 44 40 58 48 65 85 86 81 82 83 77 59 47 41 42 43 43 46 48 47 46
67 50 51 38 49 55 50 42 40 38 36 34 36 48 76 94 72 99 100 100 94 82 58 38 44 77 52 43 41 53 60 56 56 50 44 42 46 47 49 42 37 36 39 36
93 78 67 68 57 61 68 63 54 61 78 65 76 79 51 100 95 87 70 60 69 68 47 36 44 42 52 86 85 70 50 46 53 58 47 41 50 57 52 45 39 36 36 38
100 84 83 72 94 94 89 99 93 70 73 100 100 100 100 100 100 100 100 86 74 48 38 50 72 100 100 98 94 97 82 75 64 54 54 70 67 58 41 30 34 38 46 52
80 87 88 99 81 100 98 95 81 80 86 86 100 99 97 99 100 94 73 72 64 38 88 100 100 100 100 100 77 83 87 65 74 77 71 59 43 33 25 34 50 56 57 54
95 98 100 100 100 100 88 56 84 69 55 60 68 72 74 54 54 56 41 38 39 74 100 100 100 100 100 94 92 99 82 92 78 58 50 40 28 25 28 37 52 53 45 44
75 82 90 99 97 88 77 80 84 81 85 72 75 73 51 56 55 51 66 90 100 100 100 100 88 92 80 88 87 86 86 65 64 56 38 29 24 22 28 40 41 47 50 55
90 92 92 88 77 84 92 94 88 75 85 81 89 64 73 93 100 100 100 100 100 96 100 100 100 100 85 92 95 81 66 64 49 34 28 25 22 24 28 44 58 65 56 54
99 92 94 100 93 87 92 83 98 100 88 74 58 99 100 100 98 100 100 100 100 99 100 92 100 77 79 65 40 27 26 38 46 45 34 26 23 29 32 34 44 42 54 49
99 99 95 96 100 100 100 100 100 100 92 80 91 100 100 100 100 100 98 100 100 99 97 88 67 65 60 49 38 39 53 57 55 43 29 27 33 37 43 38 37 42 40 29
100 100 100 100 100 100 100 100 98 93 100 99 100 100 100 100 100 100 100 100 100 83 72 78 69 61 32 24 26 38 39 44 40 36 30 29 33 31 38 39 38 31 25 25
99 100 100 94 100 100 100 100 100 100 100 100 100 100 100 100 100 100 100 88 90 86 82 60 54 35 26 25 24 30 38 36 33 32 29 32 42 50 37 34 28 24 24 26
74 91 100 95 100 100 100 100 100 100 100 100 100 100 100 100 100 100 100 83 74 61 41 43 31 23 25 26 27 26 30 34 36 40 41 52 42 29 31 27 28 24 26 33
100 100 100 100 100 100 100 100 100 96 100 100 100 100 94 97 100 74 65 71 40 33 32 27 25 24 24 26 27 26 24 26 27 32 36 35 33 30 29 30 28 30 33 32
100 86 94 91 87 94 100 100 100 100 100 94 77 90 84 69 72 65 49 22 24 23 22 22 22 24 24 24 23 25 21 22 26 28 30 32 33 32 29 31 35 34 30 28
78 71 66 68 59 63 60 93 65 68 60 62 66 76 63 64 39 25 21 21 23 23 23 23 24 21 24 23 24 22 22 22 22 24 26 32 30 34 40 36 32 25 20 20
47 33 28 33 37 34 65 68 63 54 34 57 49 43 37 24 20 18 20 22 22 24 25 24 21 21 24 22 20 23 23 25 27 32 34 38 49 43 36 36 29 23 18 16
21 23 22 22 22 25 31 39 42 31 30 22 21 20 20 20 19 19 20 21 22 24 21 17 18 20 20 22 21 22 28 34 37 41 55 54 44 41 36 24 18 14 12 12
21 19 18 17 15 16 19 19 18 18 17 17 18 19 18 17 18 19 20 22 21 18 14 19 20 20 21 22 27 36 37 38 56 66 58 48 46 36 23 18 14 12 11 11
17 15 14 12 12 13 14 15 16 15 15 15 16 18 19 19 20 23 24 21 23 18 21 19 21 23 25 33 37 36 43 62 65 62 57 50 42 27 20 18 16 16 13 12
12 11 10 9 12 12 12 12 13 13 13 14 15 16 17 20 20 19 13 15 16 17 18 19 21 24 34 38 39 55 65 65 65 70 66 53 40 28 22 21 20 18 19 17
10 9 8 10 13 10 12 12 11 12 14 16 18 18 19 19 18 14 13 15 15 15 17 21 30 36 44 47 62 70 69 67 81 79 71 62 43 31 25 21 22 23 22 22
10 9 8 11 11 12 12 11 12 16 17 18 17 17 16 15 15 15 15 16 17 18 21 26 35 38 50 69 79 72 72 82 90 85 76 69 63 41 30 27 28 32 27 25

GFSCGP_250_rhum_150.txt.gz
RH
100 100 100 100 100 100 100 100 100 100 88 77 61 41 53 42 39 35 38 41 44 42 39 36 36 40 46 45 48 58 72 95 100 100 100 100 100 100 97 78 66 47 47 55
100 100 100 100 100 100 100 99 96 90 81 72 76 69 64 62 68 73 70 47 46 48 36 40 44 48 49 50 52 73 74 78 96 100 100 100 100 95 78 54 49 50 61 76
100 100 100 100 100 97 99 96 98 88 80 66 66 65 71 64 51 49 46 40 36 35 42 60 59 59 64 70 69 56 53 51 47 70 89 73 56 70 56 56 54 63 100 98
82 100 100 100 100 100 100 100 100 100 94 70 62 44 57 64 57 59 62 56 55 53 48 61 90 87 89 96 93 83 74 60 58 49 64 53 53 54 57 63 100 100 100 89
56 55 68 79 93 100 99 100 87 86 90 74 74 74 55 76 93 91 69 65 64 57 62 63 63 73 86 88 73 60 63 51 47 36 64 67 54 56 63 98 96 68 91 67
69 78 39 53 64 73 86 86 90 87 74 60 72 84 66 77 58 63 78 80 82 95 90 77 68 69 73 72 67 59 52 47 46 60 82 80 96 99 67 71 73 59 80 61
74 62 48 47 61 69 73 78 87 69 58 64 78 83 78 72 82 85 68 83 85 84 73 81 84 81 87 80 60 57 62 62 70 98 100 100 100 100 100 100 86 80 61 59
88 54 71 52 55 61 76 55 93 99 100 100 100 77 72 95 76 82 92 83 68 58 54 61 57 56 56 53 70 59 74 64 96 99 86 80 100 70 74 94 87 78 62 41
62 72 95 88 89 71 82 100 100 99 80 100 100 100 88 79 100 100 94 80 69 66 66 58 49 56 68 82 79 86 100 100 100 100 100 100 100 100 98 81 83 64 51 45
94 67 80 92 88 98 100 100 100 100 75 66 61 52 67 100 99 89 79 81 64 69 64 68 80 95 92 100 100 100 100 100 100 100 100 95 100 99 83 82 57 36 36 32
100 100 100 100 100 95 100 100 99 100 83 74 86 79 91 88 76 77 65 66 57 46 63 86 100 99 100 100 100 100 100 100 100 100 100 100 100 86 84 40 34 24 19 18
100 100 100 100 100 100 100 100 92 100 95 100 100 74 69 70 72 68 76 89 89 100 100 100 100 100 100 100 100 100 100 100 100 100 100 92 76 72 40 22 23 28 28 28
99 81 82 80 68 76 100 100 100 100 100 100 100 100 100 100 100 99 99 80 87 100 100 100 100 100 100 100 100 100 100 100 97 94 85 70 69 30 23 22 23 24 25 23
100 100 100 100 100 100 94 100 100 84 94 88 100 93 91 92 99 99 100 100 100 100 100 100 97 94 91 91 100 100 85 85 73 77 81 75 35 24 24 26 25 23 22 21
100 100 100 100 100 100 100 100 100 100 100 100 100 100 100 100 100 100 100 100 100 100 88 85 86 86 84 80 57 73 88 84 84 90 77 38 26 25 25 23 23 24 21 20
100 100 100 100 100 100 100 100 100 100 100 100 100 100 100 100 100 100 85 100 100 100 100 93 96 92 97 86 89 87 94 91 93 77 32 27 26 24 23 24 24 23 21 19
80 84 95 94 99 100 100 100 100 100 100 99 100 100 100 100 100 94 87 100 100 98 90 98 100 99 97 69 77 75 80 86 60 29 24 26 24 25 25 24 23 21 21 21
62 62 63 59 68 79 91 89 93 91 70 70 73 78 89 90 91 90 97 92 84 62 67 62 50 52 59 70 74 78 80 50 27 25 24 24 24 23 22 23 23 24 26 25
38 41 46 45 45 49 52 56 58 47 44 74 68 64 59 58 60 76 65 43 40 35 38 35 44 52 53 58 65 53 31 24 21 22 23 26 24 24 23 24 28 32 32 32
21 21 24 28 28 23 35 42 39 31 26 51 37 42 44 33 27 27 23 22 23 24 26 31 36 35 37 38 30 23 22 20 19 23 28 26 26 24 28 35 39 42 37 33
21 20 21 21 21 21 24 24 20 20 23 30 27 22 19 18 17 16 17 20 21 22 22 24 25 23 22 21 20 19 19 22 22 25 26 26 24 29 42 46 46 45 42 41
17 17 19 21 21 20 19 20 19 17 16 16 16 16 15 15 16 16 18 19 19 18 18 20 20 20 19 18 19 20 20 21 21 22 24 25 30 41 52 56 60 56 50 41
17 19 18 19 20 19 18 17 15 14 15 15 15 14 13 14 15 16 17 16 17 18 18 18 18 17 17 17 18 20 20 19 22 24 25 30 39 52 65 67 68 68 62 43
16 17 18 19 19 16 15 13 11 12 12 12 12 13 12 12 12 13 15 16 16 15 14 13 14 15 16 18 20 20 18 18 19 23 27 36 49 64 73 76 77 75 67 55
19 22 26 19 15 11 12 9 9 11 12 12 12 12 12 14 15 16 16 15 15 14 14 14 16 18 18 17 17 17 16 16 19 24 37 47 59 74 81 82 85 77 73 62
29 26 18 15 11 9 9 9 8 9 11 14 15 13 16 19 18 15 15 15 14 14 16 17 16 15 15 15 16 16 17 18 24 34 46 53 71 84 84 81 85 81 76 71

GFSCGP_250_rhum_153.txt.gz
RH
100 85 76 85 100 100 100 100 100 100 100 100 100 100 100 100 100 100 81 86 88 82 77 78 63 56 55 65 63 55 50 57 66 73 70 77 76 87 74 73 66 54 60 69
96 82 72 60 87 100 100 100 100 100 100 98 100 100 100 100 100 100 94 80 68 64 58 60 66 72 76 77 71 76 71 63 68 80 81 86 84 75 66 53 48 48 73 85
82 82 72 64 40 64 98 100 100 100 100 100 100 100 100 100 93 92 80 76 68 64 62 65 83 90 77 71 78 80 83 83 80 76 69 61 75 73 62 59 49 53 79 82
92 89 72 51 61 45 55 94 100 92 85 100 100 81 100 100 90 84 76 73 81 86 84 82 75 76 83 80 77 77 83 87 85 72 59 52 51 51 49 48 45 43 44 73
67 82 84 86 66 61 38 66 74 68 64 70 87 83 84 92 100 98 81 71 74 86 85 68 65 69 77 76 71 73 74 62 53 57 45 47 51 51 47 42 41 44 58 70
72 69 57 86 86 58 44 32 67 87 57 49 58 58 58 58 59 60 56 66 74 85 93 75 66 61 58 58 71 71 61 49 44 43 44 44 54 80 58 72 81 80 100 100
86 91 89 88 96 75 49 36 40 49 69 45 44 47 41 42 48 63 72 93 98 89 86 82 70 69 70 73 75 63 75 68 68 66 63 100 98 97 93 100 100 100 100 100
88 93 91 79 81 70 61 69 85 98 91 63 53 44 55 60 58 87 99 99 98 100 98 87 85 90 91 72 85 82 73 73 54 69 100 100 100 100 100 100 100 100 100 100
100 96 95 79 77 73 69 78 98 85 74 88 81 65 45 74 100 99 100 76 77 99 98 52 52 54 62 71 52 64 61 70 73 100 100 100 100 100 100 100 100 100 100 100
100 91 83 89 90 96 100 100 95 91 90 80 46 41 52 71 87 100 94 100 100 82 55 61 62 85 83 69 60 74 83 95 93 100 100 100 100 100 99 100 100 100 97 97
100 100 100 100 100 100 99 100 100 100 92 66 61 95 100 100 76 64 70 64 68 55 68 69 75 61 68 93 100 100 97 100 100 100 100 100 100 100 100 100 100 93 88 90
100 100 100 100 100 100 100 100 98 80 80 100 94 44 48 58 92 84 78 73 83 89 82 100 99 99 100 100 100 100 100 100 100 100 100 100 100 100 95 80 92 77 73 54
78 65 93 97 97 97 97 85 94 98 74 100 94 85 100 100 100 100 100 99 100 100 100 100 100 100 100 100 100 100 100 100 100 94 99 100 100 84 70 73 72 54 32 22
89 91 83 76 56 73 82 91 90 97 100 92 100 100 100 100 100 100 100 100 100 100 100 100 100 100 100 100 100 100 100 100 100 98 95 83 62 60 57 61 54 34 24 24
100 100 100 100 100 100 100 91 100 100 100 100 100 100 100 100 100 100 100 100 100 100 100 100 98 100 100 100 98 97 95 89 67 66 57 52 59 58 66 62 40 27 27 24
100 100 100 100 100 100 100 100 100 100 100 100 100 100 100 98 100 100 100 100 100 97 97 95 84 76 68 80 90 88 76 78 65 58 54 54 63 59 57 45 26 27 26 24
97 100 100 95 100 94 99 100 100 90 84 90 73 95 67 62 64 73 84 75 67 76 100 89 99 90 94 96 94 85 84 55 57 52 54 60 53 55 43 28 27 27 26 23
61 82 74 75 79 68 72 75 79 72 62 70 61 54 49 52 58 61 60 64 71 66 66 63 79 89 91 85 81 70 63 46 46 49 54 48 42 31 25 27 27 25 25 23
50 52 56 61 50 45 47 50 48 46 42 51 45 36 35 37 42 58 48 42 46 60 80 97 88 66 63 61 48 36 37 38 40 38 35 32 22 21 27 26 24 26 27 25
26 38 36 28 26 24 35 31 32 30 29 29 26 21 19 20 22 29 27 31 38 37 35 35 34 33 30 26 26 31 32 32 27 24 21 20 22 21 24 25 26 28 29 39
18 16 18 18 18 18 19 19 19 20 20 19 22 21 18 17 17 17 16 17 17 17 18 18 19 20 21 25 27 26 25 21 19 19 19 22 24 24 24 25 28 30 44 54
16 17 17 18 17 16 16 16 16 16 15 14 14 15 15 14 14 14 14 14 15 18 19 19 20 20 20 20 19 18 17 16 17 19 20 22 22 22 23 29 30 46 55 60
14 15 15 14 15 17 18 16 14 13 13 13 12 12 13 14 15 16 17 18 17 17 19 20 20 19 16 15 15 14 15 18 19 19 18 18 19 21 26 31 42 55 59 73
14 14 16 17 20 19 18 16 15 13 14 12 11 11 13 17 18 20 21 20 19 18 16 15 14 14 14 14 15 16 17 17 17 19 17 17 18 22 27 37 54 64 69 77
14 16 20 21 20 18 14 14 13 12 11 10 12 14 15 17 14 14 15 14 12 10 10 11 12 13 14 14 15 15 16 17 17 17 17 18 19 24 32 46 64 69 79 82
21 20 18 17 16 13 12 10 10 10 10 10 12 11 9 8 7 8 8 8 8 10 10 11 12 14 14 15 16 15 15 15 16 16 17 19 21 28 41 60 69 71 82 82

GFSCGP_250_rhum_156.txt.gz
RH
96 92 69 66 77 100 100 96 81 100 100 100 100 100 100 100 100 100 100 100 100 100 100 97 98 100 89 77 71 71 65 56 52 53 52 50 52 53 60 58 58 52 54 45
100 99 88 72 72 78 95 94 88 74 55 95 100 100 100 100 100 100 100 100 100 97 100 100 98 94 86 94 100 97 91 86 69 60 55 55 56 59 60 55 60 51 53 45
88 81 59 47 53 67 66 82 94 76 66 55 70 100 100 100 100 100 100 100 100 100 94 89 92 92 88 90 96 85 76 60 53 54 53 52 50 54 56 56 52 49 60 51
77 80 80 65 50 69 57 56 69 83 69 71 45 48 100 100 98 99 100 100 100 100 95 100 100 90 75 72 70 68 68 63 59 56 53 50 53 51 52 51 51 55 100 100
80 75 68 56 57 62 63 58 57 78 84 65 60 51 51 98 100 86 74 73 77 78 74 68 66 63 55 54 70 74 75 65 65 64 57 60 66 60 52 46 40 44 50 63
100 92 70 58 54 60 69 72 67 79 85 72 87 61 50 62 42 49 74 85 98 77 65 52 48 60 92 100 98 84 60 65 74 79 64 66 89 64 54 46 57 54 51 73
95 83 86 80 69 68 81 62 67 65 78 91 100 85 65 53 47 54 60 48 53 64 65 63 65 91 100 100 100 100 100 100 100 75 77 57 49 55 48 85 82 77 99 100
88 88 85 98 86 78 66 78 97 98 100 72 76 64 82 60 50 93 98 78 61 62 59 50 54 79 76 76 99 100 99 82 100 100 66 47 67 83 96 100 96 87 100 100
90 74 85 100 100 99 100 100 100 100 100 85 70 63 61 79 87 74 93 93 67 71 77 74 59 100 100 100 82 76 70 60 49 56 70 99 100 100 100 100 100 100 100 100
65 73 78 84 100 100 98 100 100 100 89 99 78 95 95 66 66 98 100 100 95 93 100 100 100 80 54 86 70 89 87 81 81 100 93 100 100 100 100 100 100 100 100 100
75 88 92 83 99 100 100 100 100 100 100 100 100 100 100 100 99 85 82 83 67 80 72 84 100 75 77 96 100 100 100 100 100 100 100 100 100 100 100 100 100 100 100 100
94 100 92 71 79 94 97 100 100 100 100 100 99 86 86 84 69 66 68 67 58 51 49 84 86 90 100 100 100 100 100 100 100 100 100 100 100 100 100 100 100 100 100 100
100 100 100 100 94 100 76 62 87 84 79 89 73 63 63 72 70 66 74 82 100 97 100 100 100 100 100 100 100 100 100 100 100 100 100 100 100 100 100 100 98 96 90 60
100 100 100 100 100 100 100 100 100 96 85 73 59 68 92 96 100 100 100 100 100 100 100 100 100 100 100 100 100 100 100 100 100 100 100 100 100 100 83 91 86 70 37 29
100 100 100 100 100 100 100 100 100 100 100 100 100 100 100 100 100 100 100 100 100 100 100 100 100 100 100 100 100 98 90 95 100 100 98 88 78 72 75 57 50 35 28 34
100 100 100 100 100 100 100 100 100 100 100 100 100 100 100 100 100 100 100 100 100 100 100 99 80 86 75 88 84 70 68 74 75 62 58 54 58 73 71 49 38 28 32 37
77 100 100 100 100 100 99 100 100 100 100 100 100 98 100 100 98 94 67 98 81 77 82 82 81 74 65 61 50 51 56 65 71 70 73 73 71 65 66 50 27 32 32 32
74 76 77 87 83 91 90 93 92 89 86 86 76 72 74 72 67 61 58 55 54 60 57 50 53 54 58 54 61 67 74 74 67 72 65 65 77 68 48 31 29 33 29 26
62 62 63 66 63 68 56 73 64 55 55 63 58 54 52 46 46 46 42 33 38 39 36 44 44 41 46 56 63 65 69 66 71 72 78 72 50 34 28 34 29 25 23 23
42 42 46 60 44 36 44 43 41 39 40 35 36 39 35 28 29 26 24 24 22 22 26 26 28 38 43 48 47 50 59 59 62 61 37 28 27 27 26 24 22 21 20 21
22 25 28 29 27 25 28 23 23 22 20 22 21 20 18 16 16 16 17 17 16 18 21 22 22 24 24 28 31 30 27 24 24 24 23 24 24 22 21 20 20 21 22 23
16 18 19 19 19 16 17 15 15 15 16 16 16 15 15 15 14 14 15 16 16 17 18 19 19 19 20 21 21 20 20 19 19 21 21 20 20 20 19 19 19 22 26 26
10 11 11 12 14 14 14 13 12 13 13 13 14 14 14 13 14 14 13 16 20 18 15 15 16 17 18 17 16 17 18 18 18 18 18 18 19 17 17 18 21 25 26 30
9 11 11 12 16 14 14 14 13 13 14 14 12 12 12 12 12 14 18 19 19 15 15 14 13 13 13 13 13 13 14 14 15 16 17 16 15 17 18 18 21 22 26 32
10 12 17 17 16 16 12 10 12 15 13 12 12 11 11 12 14 15 13 12 13 11 12 12 12 12 12 11 12 13 13 14 14 14 15 16 17 16 17 19 20 21 28 39
13 16 18 16 13 13 13 13 14 13 12 10 10 11 11 14 12 10 7 7 8 9 8 8 10 11 11 12 13 14 14 13 14 14 14 15 16 16 17 18 20 24 34 46

GFSCGP_250_rhum_162.txt.gz
RH
100 98 84 74 54 52 50 62 76 99 100 98 82 80 60 54 47 51 47 46 38 30 35 53 100 100 100 100 100 100 100 100 100 100 100 100 100 100 100 100 81 67 62 54
100 91 100 98 100 85 68 64 71 81 98 96 100 96 90 74 76 79 75 60 47 44 34 30 36 65 95 100 100 100 100 100 100 100 100 100 100 100 88 85 77 76 72 72
100 95 88 83 78 74 72 87 94 100 100 100 100 98 99 90 85 99 83 82 62 57 46 33 45 86 92 98 100 100 100 100 100 99 100 100 96 85 79 69 63 58 57 59
73 77 91 81 81 73 51 51 85 100 100 100 100 88 96 100 100 84 94 76 62 60 73 52 33 93 99 98 100 100 100 100 100 100 100 100 100 92 82 71 74 63 61 64
66 68 63 79 85 77 57 47 48 80 98 100 100 100 100 100 81 86 82 74 70 68 67 60 52 82 100 100 100 100 100 100 100 100 100 100 90 88 97 95 94 74 100 100
68 72 71 77 90 99 90 70 49 34 41 58 88 100 91 100 96 99 89 72 67 57 71 90 80 79 100 100 100 100 100 100 100 100 100 100 100 100 100 75 73 100 94 74
69 48 72 75 78 73 70 77 59 55 65 41 56 49 49 91 95 89 100 94 72 64 76 96 96 100 100 100 100 100 100 100 100 100 100 100 100 100 100 100 100 100 100 81
72 69 51 55 65 59 72 74 77 76 68 57 49 47 56 48 55 59 62 59 62 70 70 100 100 100 100 100 95 87 94 83 80 100 96 82 84 98 100 91 80 80 70 67
48 53 43 46 51 50 68 62 68 72 67 60 57 64 64 55 49 51 52 56 45 71 84 90 97 100 100 100 100 100 100 100 92 83 94 100 100 100 100 85 82 73 86 88
76 69 66 46 51 57 61 77 81 75 72 68 60 64 68 76 85 88 80 90 86 62 69 100 94 98 99 97 100 100 100 100 100 100 100 100 100 100 100 78 71 82 91 93
53 72 73 78 57 64 73 58 58 65 66 80 81 84 91 98 100 92 70 80 97 94 82 84 85 92 93 100 100 100 98 85 100 100 100 99 88 60 70 67 92 95 100 100
100 84 67 97 89 67 76 98 100 100 90 99 100 100 100 100 99 88 99 92 100 100 100 92 100 97 78 82 76 96 97 91 71 82 62 71 89 100 100 100 100 100 100 100
100 100 100 100 100 100 100 100 100 100 99 100 100 98 100 100 100 99 100 100 100 100 100 100 100 100 100 100 100 100 100 100 100 96 100 100 100 100 100 100 100 100 100 100
100 100 100 100 100 100 100 100 100 100 100 100 100 100 100 100 100 100 100 100 100 100 100 100 100 100 100 100 100 100 100 100 100 100 100 100 100 100 100 100 100 99 100 96
100 100 90 91 100 100 100 100 100 100 100 100 100 100 100 100 100 100 100 100 100 100 100 100 100 100 100 100 100 98 100 100 100 100 100 100 97 98 100 100 100 100 97 92
98 88 89 85 100 100 100 96 84 100 100 100 100 100 100 100 100 100 100 100 100 100 100 100 100 100 100 100 100 100 99 82 94 97 100 100 100 100 100 100 86 83 69 68
100 100 100 100 100 100 100 100 100 100 100 100 100 100 100 100 100 100 100 100 100 96 92 74 68 63 64 62 65 68 63 66 65 65 72 71 74 84 74 64 68 51 56 58
68 69 58 62 76 98 100 100 80 77 100 100 100 100 100 93 73 74 73 78 80 77 65 63 58 59 71 60 57 67 63 67 62 59 72 67 57 49 36 34 39 35 59 49
54 61 59 59 66 54 50 55 72 74 72 79 73 79 86 81 76 78 64 69 60 55 53 50 48 51 48 55 55 44 54 58 43 34 40 39 31 33 34 32 37 46 51 57
34 36 47 53 44 44 47 56 50 55 55 76 86 87 82 73 61 49 47 38 31 31 34 36 35 28 25 24 24 23 19 17 17 16 18 20 22 24 25 28 31 35 38 41
24 24 22 24 24 27 31 48 67 70 67 61 42 32 29 29 27 24 21 20 22 21 17 16 16 16 16 16 15 15 15 14 13 13 14 15 17 19 20 22 24 24 24 24
14 18 20 22 26 24 41 36 25 27 22 19 23 26 28 24 18 14 14 13 14 13 13 12 11 10 11 11 11 12 11 11 12 13 15 16 17 17 18 19 19 19 20 22
10 14 15 12 14 16 17 18 20 21 19 22 21 24 25 17 13 11 10 8 8 9 10 10 11 13 13 13 11 10 10 11 12 14 14 15 15 16 16 17 18 18 19 19
7 11 10 11 10 14 16 18 18 20 22 24 28 34 24 17 13 10 10 10 10 10 11 11 12 14 13 10 10 12 12 12 12 12 12 13 15 16 17 18 17 16 15 14
9 10 8 7 10 15 18 20 18 10 11 16 22 17 14 12 11 10 9 10 10 11 14 13 11 10 10 11 11 10 10 10 11 11 12 11 12 12 12 12 13 14 15 16
10 10 8 8 9 12 13 18 16 16 18 19 14 13 10 10 9 9 11 13 12 11 10 10 10 10 9 9 7 7 9 10 10 12 12 11 11 12 13 14 15 16 16 16

GFSCGP_250_rhum_168.txt.gz
RH
84 82 100 100 100 92 78 99 100 100 100 89 100 100 100 99 79 70 77 66 76 70 82 78 66 67 62 88 100 100 98 72 72 62 74 47 36 81 100 100 100 100 100 100
61 55 70 100 100 100 100 100 100 89 100 100 100 100 100 77 70 89 81 77 70 60 59 65 63 67 70 100 98 80 71 63 59 64 53 62 55 52 91 100 100 93 95 74
75 57 51 100 100 100 87 79 87 77 70 66 67 76 68 70 76 64 64 73 90 83 61 58 64 77 58 85 96 72 93 99 69 68 53 52 72 56 47 53 53 47 64 85
64 74 70 82 90 84 72 67 62 73 69 68 73 58 64 90 75 68 62 61 73 79 64 52 54 54 69 62 73 68 63 63 68 67 88 66 69 67 65 78 100 100 99 89
71 71 75 79 77 68 59 63 71 67 60 54 52 64 77 95 79 75 87 81 59 49 64 64 52 51 55 61 70 74 66 63 70 83 62 72 83 52 83 65 79 100 100 100
74 65 60 87 76 70 62 61 67 66 64 52 48 55 49 62 60 59 64 73 63 46 43 57 68 58 50 62 73 70 68 64 78 92 76 90 88 92 100 98 83 100 99 75
55 57 65 58 57 70 74 44 50 70 75 66 58 45 36 34 41 42 41 44 47 52 57 67 66 49 45 50 72 69 82 72 76 80 99 99 92 82 99 100 99 85 100 99
38 37 48 54 47 62 61 60 52 45 51 63 55 46 42 38 35 36 36 45 44 59 88 91 65 70 63 68 80 84 87 91 63 85 89 95 98 78 100 99 100 100 100 100
31 30 30 34 45 35 43 33 45 41 42 45 45 39 41 48 47 50 48 49 55 54 73 75 62 66 97 84 96 100 99 100 100 100 98 97 93 89 98 100 55 93 100 100
36 26 33 35 35 36 36 36 33 42 52 54 45 48 54 54 57 76 90 80 65 66 84 67 84 97 98 100 100 100 100 100 100 100 100 100 100 94 94 95 84 77 96 95
46 37 41 40 30 36 37 40 49 56 50 65 62 59 46 58 75 90 72 54 80 92 95 96 100 100 100 100 100 100 100 100 100 100 100 100 100 100 100 100 100 100 96 99
97 66 57 53 40 36 38 41 51 44 59 64 69 74 63 54 65 76 99 100 99 95 97 100 100 100 100 100 100 100 100 100 100 100 100 100 100 100 100 100 100 100 100 100
100 97 100 100 100 100 100 100 100 100 100 99 85 100 100 100 100 100 100 100 99 99 100 100 100 100 100 100 100 100 100 100 100 100 100 100 100 100 100 100 100 100 100 100
43 84 100 100 100 100 100 100 100 98 98 100 100 100 100 100 100 100 100 100 100 100 100 100 100 100 100 100 100 100 100 100 100 100 100 100 100 100 100 100 100 100 100 100
42 34 43 68 75 62 70 90 100 100 100 100 100 100 100 100 100 100 100 100 100 100 100 100 100 100 100 100 100 100 100 100 100 100 100 100 100 100 100 100 100 100 100 98
50 43 37 30 34 27 31 32 34 51 61 47 53 76 100 100 100 99 100 100 100 92 93 80 72 59 58 62 86 91 99 100 100 79 86 84 80 84 85 99 100 100 100 100
39 46 47 45 59 52 30 31 37 38 42 46 46 57 54 54 56 61 69 69 72 79 75 56 69 84 78 82 76 78 75 64 62 56 64 65 59 74 83 86 85 78 72 56
31 35 34 32 40 37 41 51 59 55 60 69 72 81 94 89 87 80 77 92 95 84 77 91 93 86 81 75 70 51 47 40 45 41 36 41 45 40 30 26 24 23 28 34
30 30 32 48 60 55 45 61 80 97 83 84 83 99 100 100 95 89 94 91 84 78 78 77 85 83 58 43 32 33 31 33 37 39 27 19 18 18 16 16 17 19 22 24
16 20 24 22 25 36 35 47 53 55 55 76 87 78 85 89 79 90 89 75 65 52 55 60 59 40 28 26 25 23 24 23 18 17 16 16 14 12 12 12 14 14 14 15
18 18 17 19 14 18 20 25 27 34 36 45 57 54 68 76 78 56 32 27 34 32 31 30 22 19 19 19 17 13 13 12 11 12 11 10 9 8 9 10 11 12 12 12
9 12 16 23 16 12 18 30 24 26 24 33 36 42 45 41 30 26 25 23 18 17 15 15 15 15 13 12 12 10 10 11 10 9 9 9 8 9 10 12 14 14 14 15
12 10 9 9 11 13 20 30 32 37 42 44 41 33 34 40 33 31 24 19 16 16 16 18 19 16 12 11 11 10 10 9 8 9 9 9 9 10 12 13 13 14 13 13
8 10 9 12 8 9 9 10 10 12 13 14 20 22 23 28 32 26 18 19 19 21 21 20 20 12 10 12 10 10 9 9 9 10 10 10 9 9 11 10 10 10 10 10
12 12 15 11 14 22 11 9 9 8 8 12 14 16 17 20 19 18 17 16 16 17 18 19 15 11 10 11 10 10 10 11 11 10 9 9 8 7 8 8 8 10 11 13
15 13 10 6 8 8 8 12 10 8 10 12 12 12 15 23 18 18 14 15 14 15 15 12 10 8 10 11 10 10 10 10 10 8 7 7 7 7 8 9 10 12 12 13

GFSCGP_250_rhum_171.txt.gz
RH
93 90 98 100 85 66 72 78 99 100 100 69 85 99 100 100 100 100 100 90 80 80 85 90 87 74 69 69 66 61 78 77 85 100 100 100 100 100 97 64 37 61 54 86
100 98 100 100 100 100 90 66 64 61 62 61 98 97 81 74 94 97 84 81 84 81 72 79 97 84 77 72 76 63 58 59 60 88 86 100 100 97 100 72 34 42 63 57
100 100 100 100 100 100 97 81 79 66 64 57 88 87 77 76 74 72 73 72 71 66 64 74 71 80 79 71 70 64 82 89 71 76 96 100 100 82 71 34 36 50 50 48
100 100 100 99 100 100 96 100 88 78 83 86 80 68 78 83 74 72 71 75 60 50 46 42 46 47 59 63 79 74 62 64 68 63 79 94 96 89 59 44 60 62 56 47
99 100 100 100 100 100 100 100 93 90 84 72 79 88 84 78 69 65 76 76 66 62 46 45 39 38 40 45 63 75 87 72 76 71 68 76 80 82 41 73 53 46 52 78
90 94 100 100 100 100 100 100 90 86 86 75 82 80 69 77 78 78 63 51 56 57 54 53 45 43 46 49 63 67 65 69 78 68 69 74 55 53 66 80 93 74 80 87
91 81 86 84 89 100 98 80 74 72 69 66 66 60 51 50 50 60 56 47 41 42 46 44 48 56 58 48 57 57 66 75 73 71 60 71 91 100 100 94 83 72 94 92
100 95 86 77 79 88 90 76 69 68 61 56 44 47 45 38 36 37 36 40 39 36 43 70 62 51 52 64 61 57 62 64 49 66 87 85 90 100 100 100 99 100 73 95
62 84 72 54 63 65 56 50 50 48 38 35 36 30 28 29 31 32 31 31 34 38 55 67 58 58 58 51 55 69 82 82 84 90 100 100 100 100 100 100 100 100 100 96
62 58 64 47 44 56 56 62 55 44 41 36 28 31 34 37 37 36 40 43 46 58 58 49 43 66 52 57 89 100 99 100 83 100 95 100 100 100 100 93 100 100 100 100
100 96 100 100 95 99 98 86 99 96 58 73 72 54 46 40 39 45 52 42 48 59 48 52 61 68 72 72 92 100 100 100 100 100 100 100 100 100 100 100 100 100 100 100
74 80 65 77 84 86 95 100 100 100 99 99 83 85 98 99 100 96 70 99 100 86 80 74 73 77 97 100 100 100 100 100 100 100 100 100 100 100 100 100 100 100 100 100
97 90 72 43 43 52 76 74 65 56 68 96 96 100 100 100 100 100 100 100 100 100 96 98 86 94 100 100 100 100 100 100 100 100 100 100 100 100 100 100 100 100 100 100
81 90 81 74 70 66 60 60 59 48 42 48 50 50 54 64 60 92 100 100 97 100 100 100 100 100 100 100 100 100 100 100 100 100 100 100 100 100 100 100 100 100 100 100
47 44 53 57 61 55 51 53 53 48 38 38 36 40 42 43 42 42 46 65 64 52 49 48 68 75 64 52 54 59 69 81 79 88 98 99 100 100 96 100 100 100 100 100
42 40 33 26 26 26 29 28 25 35 38 29 32 35 38 44 43 46 46 42 45 47 41 37 43 46 41 46 63 64 52 46 45 44 53 59 50 53 64 73 75 68 67 66
32 37 41 47 63 44 30 26 30 29 26 30 30 32 34 34 35 35 38 41 45 46 50 60 71 78 85 95 93 89 81 69 66 57 58 54 50 64 74 64 43 35 41 42
31 35 35 36 41 31 37 49 47 41 38 36 48 64 68 62 65 50 48 76 78 69 79 82 78 80 81 81 80 74 70 66 68 66 57 38 34 34 26 23 24 25 26 26
22 22 23 30 40 39 30 42 62 64 62 51 58 58 62 63 57 54 94 83 93 90 79 80 79 80 77 71 68 60 64 51 28 26 24 22 17 17 18 18 15 14 14 14
14 17 19 26 36 29 48 56 47 66 52 78 92 95 65 59 61 90 96 77 78 82 79 78 68 53 50 52 49 45 25 24 21 20 18 18 20 19 17 16 16 15 14 12
16 16 22 26 34 31 25 22 43 39 28 34 38 35 44 55 58 63 58 64 80 76 74 59 46 34 27 29 26 22 25 23 17 16 16 15 16 15 13 12 11 10 10 10
18 26 30 43 42 41 20 31 25 24 39 45 42 51 46 44 43 60 57 82 92 83 62 51 30 19 16 19 20 19 16 14 12 12 12 12 10 10 9 9 9 10 10 12
25 28 32 21 18 38 45 58 43 24 21 20 26 50 57 65 74 84 90 67 86 60 41 28 18 16 16 16 14 12 12 12 14 13 11 10 8 8 8 8 9 9 11 13
11 14 10 20 31 57 44 31 32 35 30 20 16 28 35 50 41 43 46 45 45 34 26 27 24 20 16 15 12 15 16 18 17 12 10 8 8 9 10 9 9 9 10 10
12 17 36 20 16 28 20 19 16 12 13 18 17 16 20 24 23 27 31 27 24 24 30 26 19 17 16 15 20 22 20 15 12 10 9 10 10 10 8 8 7 8 9 9
25 21 18 6 10 10 10 9 7 8 11 8 6 7 8 10 13 14 16 19 19 23 23 17 17 15 16 18 20 16 13 13 11 10 10 9 9 8 8 8 9 9 9 10